DW0841 Weather Reports


Display with metric or nautical units.
time (UTC)temp
F
wind
direction
speed
MPH
gust
MPH
rain 1hr
in
rain 24hr
in
rain mn
in
humidity
%
barometer
mb
20260506022717 61 203 1.0 2.0 0.00 0.00 0.00 68 1004.8
20260506021716 62 203 2.0 4.0 0.00 0.00 0.00 63 1005.0
20260506020716 62 203 1.0 3.0 0.00 0.00 0.00 61 1005.1
20260506015716 62 225 1.0 4.0 0.00 0.00 0.00 61 1005.2
20260506014717 62 203 2.0 3.0 0.00 0.00 0.00 60 1005.5
20260506013717 63 270 3.0 5.0 0.00 0.00 0.00 57 1005.7
20260506012716 63 315 2.0 3.0 0.00 0.00 0.00 55 1005.6
20260506011716 64 315 2.0 3.0 0.00 0.00 0.00 55 1005.6
20260506010716 64 23 2.0 5.0 0.00 0.00 0.00 57 1005.8
20260506005716 64 315 2.0 3.0 0.00 0.00 0.00 56 1005.9
20260506004716 63 0 3.0 4.0 0.00 0.00 0.00 57 1006.2
20260506003716 62 23 3.0 6.0 0.00 0.00 0.00 59 1006.2
20260506002716 62 338 2.0 4.0 0.00 0.00 0.00 60 1006.2
20260506001716 61 0 2.0 3.0 0.00 0.00 0.00 61 1006.2
20260506000716 61 315 2.0 3.0 0.00 0.00 0.00 61 1006.3
20260505235716 62 338 1.0 3.0 0.00 0.00 0.00 61 1006.5
20260505234716 62 338 2.0 3.0 0.00 0.00 0.00 61 1006.5
20260505233716 62 0 2.0 6.0 0.00 0.00 0.00 63 1006.7
20260505232716 60 315 2.0 3.0 0.00 0.00 0.00 66 1006.9
20260505231717 60 0 2.0 4.0 0.00 0.00 0.00 67 1007.4
20260505230716 60 315 3.0 8.0 0.00 0.00 0.00 69 1007.7
20260505225716 59 248 2.0 3.0 0.00 0.00 0.00 71 1007.6
20260505224716 57 23 3.0 4.0 0.00 0.00 0.00 73 1007.7
20260505223716 57 0 3.0 7.0 0.00 0.00 0.00 74 1007.9
20260505222736 57 315 2.0 4.0 0.00 0.00 0.00 73 1007.8
20260505221717 56 270 5.0 15.0 0.00 0.00 0.00 74 1007.7
20260505220716 54 270 3.0 9.0 0.00 0.00 0.00 77 1007.7
20260505215716 54 270 1.0 2.0 0.00 0.00 0.00 75 1007.6
20260505214716 54 23 2.0 4.0 0.00 0.00 0.00 76 1007.5
20260505213736 55 315 2.0 4.0 0.00 0.00 0.00 75 1007.5
20260505212716 55 248 1.0 2.0 0.00 0.00 0.00 74 1007.6
20260505211716 55 315 1.0 2.0 0.00 0.00 0.00 74 1007.7
20260505210716 55 0 1.0 2.0 0.00 0.00 0.00 73 1007.7
20260505205716 56 270 2.0 3.0 0.00 0.00 0.00 73 1007.7
20260505204717 56 23 2.0 3.0 0.00 0.00 0.00 72 1007.5
20260505203716 55 45 5.0 7.0 0.00 0.00 0.00 73 1007.6
20260505202736 55 45 2.0 4.0 0.00 0.00 0.00 76 1007.8
20260505201717 55 0 2.0 3.0 0.00 0.00 0.00 73 1008.1
20260505200716 56 0 3.0 6.0 0.00 0.00 0.00 72 1008.0
20260505195716 55 45 3.0 6.0 0.00 0.00 0.00 74 1008.2
20260505194716 54 315 4.0 9.0 0.00 0.00 0.00 74 1008.3
20260505193716 55 270 2.0 4.0 0.00 0.00 0.00 73 1008.4
20260505192716 56 45 2.0 3.0 0.00 0.00 0.00 73 1008.4
20260505191716 55 315 2.0 5.0 0.00 0.00 0.00 75 1008.3
20260505190716 54 45 2.0 3.0 0.00 0.00 0.00 75 1008.3
20260505185716 55 0 1.0 3.0 0.00 0.00 0.00 74 1008.3
20260505184736 55 0.0 1.0 0.00 0.00 0.00 74 1008.4
20260505183716 55 315 2.0 4.0 0.00 0.00 0.00 74 1008.2
20260505182716 54 338 1.0 2.0 0.00 0.00 0.00 75 1008.2
20260505181716 54 338 1.0 3.0 0.00 0.00 0.00 74 1008.6
20260505180716 55 23 1.0 3.0 0.00 0.00 0.00 73 1008.6
20260505175716 55 0 4.0 6.0 0.00 0.00 0.00 73 1008.8
20260505174716 55 293 2.0 4.0 0.00 0.00 0.00 74 1008.7
20260505173716 55 0 2.0 3.0 0.00 0.00 0.00 74 1008.9
20260505172716 55 23 3.0 5.0 0.00 0.00 0.00 74 1008.9
20260505171736 55 338 2.0 4.0 0.00 0.00 0.00 75 1009.2
20260505170716 54 338 2.0 4.0 0.00 0.00 0.00 75 1009.5
20260505165736 54 315 1.0 2.0 0.00 0.00 0.00 75 1009.6
20260505164718 54 338 1.0 2.0 0.00 0.00 0.00 75 1009.8
20260505163736 54 0 2.0 3.0 0.00 0.00 0.00 75 1009.7
20260505162718 53 338 1.0 2.0 0.00 0.00 0.00 76 1009.8
20260505161718 54 0 1.0 1.0 0.00 0.00 0.00 74 1009.9
20260505160718 55 0.0 1.0 0.00 0.00 0.00 72 1010.0
20260505152718 56 90 2.0 3.0 0.00 0.00 0.00 71 1010.0
20260505151718 56 0 3.0 5.0 0.00 0.00 0.00 71 1010.1
20260505150718 56 338 3.0 5.0 0.00 0.00 0.00 72 1010.2
20260505124717 52 45 2.0 3.0 0.00 0.00 0.00 77 1011.2
20260505123717 52 270 3.0 7.0 0.00 0.00 0.00 77 1011.3
20260505122717 51 0 2.0 3.0 0.00 0.00 0.00 78 1011.5
20260505121717 51 0.0 1.0 0.00 0.00 0.00 79 1011.6
20260505120717 50 0.0 2.0 0.00 0.00 0.00 79 1011.7
20260505115717 50 0.0 1.0 0.00 0.00 0.00 79 1011.8
20260505114717 51 0.0 1.0 0.00 0.00 0.00 77 1012.0
20260505113717 52 0.0 0.0 0.00 0.00 0.00 76 1012.2
20260505112717 52 45 2.0 4.0 0.00 0.00 0.00 75 1011.9
20260505111717 52 45 2.0 3.0 0.00 0.00 0.00 75 1012.1
20260505110717 53 0.0 1.0 0.00 0.00 0.00 75 1012.1
20260505101717 52 293 2.0 3.0 0.00 0.00 0.00 76 1012.1
20260505100717 51 0.0 1.0 0.00 0.00 0.00 79 1012.2
20260505095717 50 0.0 1.0 0.00 0.00 0.00 79 1012.2
20260505094717 50 0.0 0.0 0.00 0.00 0.00 79 1012.3
20260505093717 50 0.0 0.0 0.00 0.00 0.00 78 1012.2
20260505092717 50 0.0 0.0 0.00 0.00 0.00 77 1012.2
20260505091717 50 315 1.0 2.0 0.00 0.00 0.00 77 1012.2
20260505090717 50 0.0 0.0 0.00 0.00 0.00 77 1012.1
20260505085717 51 315 1.0 2.0 0.00 0.00 0.00 76 1012.1
20260505084717 51 315 1.0 1.0 0.00 0.00 0.00 75 1011.9
20260505083717 51 0.0 1.0 0.00 0.00 0.00 75 1011.7
20260505082717 52 0 1.0 1.0 0.00 0.00 0.00 73 1011.7
20260505081717 53 0.0 0.0 0.00 0.00 0.00 72 1011.8
20260505080717 54 0.0 1.0 0.00 0.00 0.00 71 1011.7
20260505075717 54 90 2.0 2.0 0.00 0.00 0.00 71 1011.6
20260505074717 55 315 1.0 2.0 0.00 0.00 0.00 69 1011.8
20260505073717 55 0.0 0.0 0.00 0.00 0.00 68 1011.7
20260505072717 56 315 1.0 2.0 0.00 0.00 0.00 68 1011.5
20260505071717 56 0.0 1.0 0.00 0.00 0.00 66 1011.3
20260505070757 57 0.0 1.0 0.00 0.00 0.00 65 1011.3
20260505065717 57 0.0 0.0 0.00 0.00 0.00 64 1011.2
20260505064717 58 0.0 0.0 0.00 0.00 0.00 63 1011.2
20260505063717 58 0.0 0.0 0.00 0.00 0.00 62 1011.2
20260505062717 60 0.0 1.0 0.00 0.00 0.00 59 1011.1
20260505061717 61 315 1.0 2.0 0.00 0.00 0.00 57 1011.0
20260505060757 62 225 3.0 4.0 0.00 0.00 0.00 54 1010.8
20260505055737 63 225 2.0 3.0 0.00 0.00 0.00 53 1010.6
20260505054717 63 203 1.0 3.0 0.00 0.00 0.00 55 1010.6
20260505053737 62 0.0 0.0 0.00 0.00 0.00 57 1010.5
20260505052717 62 203 4.0 7.0 0.00 0.00 0.00 55 1010.3
20260505051717 64 180 5.0 8.0 0.00 0.00 0.00 53 1010.2
20260505050717 65 180 4.0 8.0 0.00 0.00 0.00 52 1010.0
20260505041717 63 203 2.0 6.0 0.00 0.00 0.00 60 1009.4
20260505040717 63 203 3.0 6.0 0.00 0.00 0.00 60 1009.4
20260505035717 62 270 2.0 5.0 0.00 0.00 0.00 61 1009.3
20260505034717 63 248 1.0 2.0 0.00 0.00 0.00 59 1009.3
20260505033717 64 203 2.0 4.0 0.00 0.00 0.00 61 1009.1
20260505032737 63 270 3.0 4.0 0.00 0.00 0.00 61 1009.0
20260505031717 63 203 3.0 4.0 0.00 0.00 0.00 61 1009.0
20260505030817 63 135 1.0 3.0 0.00 0.00 0.00 61 1009.0
20260505025717 63 158 2.0 4.0 0.00 0.00 0.00 60 1009.1
20260505024717 64 203 3.0 5.0 0.00 0.00 0.00 59 1009.1
20260505023717 65 225 3.0 6.0 0.00 0.00 0.00 58 1008.9